This demonstration page uses our WeatherBlox Daily Observations layout. Learn more.

Left ArrowRight Arrow

Hourly Observations for September 9, 2015

Temp ( °F °C ) Dew Point ( °F °C ) Humidity (%) Winds ( mph kmh ) Pressure ( in mb ) Visibility ( mi km ) Precip ( " mm )
12:15 am 00:15 Clear 77 25 73 23 89 89 SSW 10 17 30.00 1016 10 16 0.00 0.00
12:35 am 00:35 Clear 77 25 73 23 89 89 SW 6 9 30.00 1016 10 16 0.00 0.00
12:55 am 00:55 Clear 77 25 73 23 89 89 SSW 12 19 30.00 1016 10 16 0.00 0.00
1:15 am 01:15 Clear 77 25 73 23 89 89 SSW 8 13 29.97 1015 10 16 0.00 0.00
1:35 am 01:35 Clear 75 24 73 23 94 94 S 8 13 29.97 1015 10 16 0.00 0.00
1:55 am 01:55 Clear 75 24 73 23 94 94 SSW 6 9 29.97 1015 10 16 0.00 0.00
2:15 am 02:15 Clear 73 23 73 23 100 100 S 7 11 29.97 1015 10 16 0.00 0.00
2:35 am 02:35 Clear 73 23 73 23 100 100 SSW 10 17 29.97 1015 10 16 0.00 0.00
2:55 am 02:55 Clear 75 24 73 23 94 94 S 10 17 29.97 1015 10 16 0.00 0.00
3:15 am 03:15 Clear 75 24 73 23 94 94 S 10 17 29.97 1015 10 16 0.00 0.00
3:35 am 03:35 Clear 73 23 73 23 100 100 S 9 15 29.97 1015 10 16 0.00 0.00
3:55 am 03:55 Clear 73 23 73 23 100 100 S 8 13 29.97 1015 10 16 0.00 0.00
4:15 am 04:15 Clear 73 23 73 23 100 100 SSW 6 9 29.97 1015 10 16 0.00 0.00
4:35 am 04:35 Clear 73 23 73 23 100 100 S 7 11 29.97 1015 10 16 0.00 0.00
4:55 am 04:55 Clear 73 23 73 23 100 100 S 7 11 29.97 1015 10 16 0.00 0.00
5:15 am 05:15 Clear 73 23 73 23 100 100 S 6 9 29.97 1015 10 16 0.00 0.00
5:35 am 05:35 Partly Cloudy 73 23 73 23 100 100 SSW 5 7 29.97 1015 10 16 0.00 0.00
5:55 am 05:55 Mostly Cloudy 73 23 73 23 100 100 S 5 7 29.97 1015 10 16 0.00 0.00
6:15 am 06:15 Cloudy 73 23 73 23 100 100 S 5 7 29.97 1015 10 16 0.00 0.00
6:35 am 06:35 Cloudy 73 23 73 23 100 100 S 6 9 29.97 1015 10 16 0.00 0.00
6:55 am 06:55 Cloudy 73 23 73 23 100 100 S 7 11 29.97 1015 10 16 0.00 0.00
7:15 am 07:15 Cloudy 73 23 73 23 100 100 SSW 5 7 29.97 1015 7 11 0.00 0.00
7:35 am 07:35 Cloudy 73 23 73 23 100 100 SSW 5 7 29.97 1015 10 16 0.00 0.00
7:55 am 07:55 Cloudy 73 23 73 23 100 100 SSW 5 7 29.97 1015 10 16 0.00 0.00
8:15 am 08:15 Cloudy 75 24 75 24 100 100 SSW 6 9 29.97 1015 10 16 0.00 0.00
8:35 am 08:35 Cloudy 75 24 75 24 100 100 SSW 8 13 29.97 1015 10 16 0.00 0.00
8:55 am 08:55 Cloudy 75 24 75 24 100 100 SSW 6 9 29.97 1015 10 16 0.00 0.00
9:15 am 09:15 Cloudy 77 25 75 24 94 94 SW 6 9 29.97 1015 10 16 0.00 0.00
9:35 am 09:35 Cloudy 79 26 75 24 89 89 SSW 9 15 29.97 1015 10 16 0.00 0.00
9:55 am 09:55 Cloudy 81 27 75 24 84 84 SSW 9 15 29.97 1015 10 16 0.00 0.00
10:15 am 10:15 Mostly Cloudy 81 27 75 24 84 84 SSW 9 15 29.97 1015 10 16 0.00 0.00
10:35 am 10:35 Partly Cloudy 84 29 75 24 74 74 SW 6 9 29.97 1015 10 16 0.00 0.00
10:55 am 10:55 Sunny 86 30 75 24 70 70 SW 7 11 29.94 1014 10 16 0.00 0.00
11:15 am 11:15 Partly Cloudy 88 31 73 23 62 62 WSW 7 11 29.94 1014 10 16 0.00 0.00
11:35 am 11:35 Sunny 88 31 73 23 62 62 SSW 5 7 29.91 1013 10 16 0.00 0.00
11:55 am 11:55 Sunny 90 32 72 22 55 55 SSW 6 9 29.91 1013 10 16 0.00 0.00
12:15 pm 12:15 Sunny 90 32 72 22 55 55 S 9 15 29.91 1013 10 16 0.00 0.00
12:35 pm 12:35 Sunny 90 32 72 22 55 55 SSE 3 6 29.91 1013 10 16 0.00 0.00
12:55 pm 12:55 Partly Cloudy 91 33 70 21 49 49 WNW 7 11 29.88 1012 10 16 0.00 0.00
1:15 pm 13:15 Sunny 91 33 72 22 52 52 S 5 7 29.88 1012 10 16 0.00 0.00
1:35 pm 13:35 Sunny 93 34 72 22 49 49 SW 5 7 29.88 1012 10 16 0.00 0.00
1:55 pm 13:55 Sunny 91 33 70 21 49 49 NW 3 6 29.88 1012 10 16 0.00 0.00
2:15 pm 14:15 Partly Cloudy 95 35 70 21 44 44 SSW 7 11 29.85 1011 10 16 0.00 0.00
2:35 pm 14:35 Mostly Cloudy 90 32 72 22 55 55 WNW 14 22 29.85 1011 10 16 0.00 0.00
2:55 pm 14:55 Cloudy 86 30 72 22 62 62 WNW 14 22 29.85 1011 10 16 0.00 0.00
3:15 pm 15:15 Cloudy 88 31 72 22 59 59 W 3 6 29.85 1011 10 16 0.00 0.00
3:35 pm 15:35 Mostly Cloudy 90 32 70 21 52 52 SW 6 9 29.83 1010 10 16 0.00 0.00
3:55 pm 15:55 Partly Cloudy 91 33 73 23 56 56 S 14 22 29.83 1010 10 16 0.00 0.00
4:15 pm 16:15 Sunny 91 33 72 22 52 52 SW 7 11 29.83 1010 10 16 0.00 0.00
4:35 pm 16:35 Sunny 90 32 72 22 55 55 SSW 5 7 29.83 1010 10 16 0.00 0.00
4:55 pm 16:55 Mostly Cloudy 91 33 70 21 49 49 Calm 29.83 1010 10 16 0.00 0.00
5:15 pm 17:15 Partly Cloudy 90 32 70 21 52 52 S 7 11 29.80 1009 10 16 0.00 0.00
5:35 pm 17:35 Sunny 90 32 70 21 52 52 S 5 7 29.80 1009 10 16 0.00 0.00
5:55 pm 17:55 Mostly Cloudy 88 31 72 22 59 59 Calm 29.80 1009 10 16 0.00 0.00
6:15 pm 18:15 Mostly Cloudy 88 31 72 22 59 59 S 5 7 29.80 1009 10 16 0.00 0.00
6:35 pm 18:35 Mostly Cloudy 86 30 72 22 62 62 Calm 29.80 1009 10 16 0.00 0.00
6:55 pm 18:55 Cloudy 86 30 72 22 62 62 WSW 5 7 29.80 1009 10 16 0.00 0.00
7:15 pm 19:15 Partly Cloudy 84 29 72 22 66 66 W 5 7 29.80 1009 10 16 0.00 0.00
7:35 pm 19:35 Clear 82 28 72 22 70 70 WSW 5 7 29.83 1010 10 16 0.00 0.00
7:55 pm 19:55 Clear 82 28 73 23 74 74 WSW 5 7 29.85 1011 10 16 0.00 0.00
8:15 pm 20:15 Clear 82 28 73 23 74 74 SSW 9 15 29.85 1011 10 16 0.00 0.00
8:35 pm 20:35 Clear 82 28 73 23 74 74 S 5 7 29.85 1011 10 16 0.00 0.00
8:55 pm 20:55 Clear 82 28 73 23 74 74 S 9 15 29.85 1011 10 16 0.00 0.00
9:15 pm 21:15 Clear 81 27 73 23 79 79 SSW 14 22 29.88 1012 10 16 0.00 0.00
9:35 pm 21:35 Clear 81 27 73 23 79 79 SSW 12 19 29.88 1012 10 16 0.00 0.00
9:55 pm 21:55 Clear 81 27 73 23 79 79 WSW 3 6 29.88 1012 10 16 0.00 0.00
10:15 pm 22:15 Clear 81 27 73 23 79 79 SSW 13 20 29.88 1012 10 16 0.00 0.00
10:35 pm 22:35 Clear 79 26 73 23 84 84 SSW 13 20 29.85 1011 10 16 0.00 0.00
10:55 pm 22:55 Clear 79 26 73 23 84 84 SSW 12 19 29.88 1012 10 16 0.00 0.00
11:15 pm 23:15 Clear 79 26 73 23 84 84 WSW 3 6 29.85 1011 10 16 0.00 0.00
11:35 pm 23:35 Clear 77 25 73 23 89 89 W 7 11 29.88 1012 10 16 0.00 0.00
11:55 pm 23:55 Clear 79 26 73 23 84 84 SSW 10 17 29.85 1011 10 16 0.00 0.00

Powered by AerisWeather